Location: Montreal
(45.5087°N, 73.5540°W)
Time: 02:01:18
(UTC-04:00)

Courier 1B Rocket - All Passes

Search period start: 08 June 2026 00:00
Search period end: 18 June 2026 00:00
Orbit: 920 x 1201 km, 28.2° (Epoch: 7 June)

Date Brightness Start Highest point End Pass type
(mag) Time Alt. Az. Time Alt. Az. Time Alt. Az.
8 Jun - 01:34:06 10° SW 01:39:27 20° S 01:44:39 10° SE visible
8 Jun - 03:28:35 10° SW 03:31:47 13° SSW 03:34:56 10° S visible
8 Jun - 22:41:22 10° SSW 22:45:53 16° SSE 22:50:23 10° SE visible
9 Jun - 00:32:51 10° SW 00:38:22 21° S 00:43:46 10° SE visible
9 Jun - 02:26:21 10° SW 02:30:48 16° SSW 02:35:09 10° SSE visible
9 Jun - 21:41:26 10° S 21:44:51 13° SSE 21:48:16 10° SE visible
9 Jun - 23:31:50 10° SW 23:37:15 21° S 23:42:39 10° SE visible
10 Jun - 01:24:39 10° SW 01:29:46 19° S 01:34:47 10° SSE night (unlit)
10 Jun - 03:21:49 10° SSW 03:22:02 10° SSW 03:22:15 10° SSW visible
10 Jun - 22:31:06 10° SSW 22:36:10 19° S 22:41:16 10° SE visible
11 Jun - 00:23:14 10° SW 00:28:41 21° S 00:34:05 10° SE visible
11 Jun - 02:17:33 10° SW 02:21:04 14° SSW 02:24:33 10° S night (unlit)
11 Jun - 21:30:41 10° SSW 21:35:06 16° SSE 21:39:35 10° SE visible
11 Jun - 23:22:04 10° SW 23:27:34 21° S 23:33:06 10° SE visible
12 Jun - 01:15:27 10° SW 01:20:03 17° SSW 01:24:37 10° SSE visible
12 Jun - 20:30:55 10° S 20:34:06 13° SSE 20:37:21 10° SE daylight
12 Jun - 22:21:08 10° SW 22:26:28 20° S 22:31:53 10° SE visible
13 Jun - 00:13:50 10° SW 00:18:59 19° S 00:24:08 10° SSE visible
13 Jun - 02:10:05 10° SSW 02:11:18 10° SSW 02:12:32 10° SSW night (unlit)
13 Jun - 21:20:30 10° SSW 21:25:24 19° S 21:30:24 10° SE visible
13 Jun - 23:12:31 10° SW 23:17:53 21° S 23:23:20 10° SE visible
14 Jun - 01:06:41 10° SW 01:10:19 14° SSW 01:13:57 10° S visible
14 Jun - 20:20:14 10° SSW 20:24:22 16° SSE 20:28:37 10° SE daylight
14 Jun - 22:11:27 10° SW 22:16:47 21° S 22:22:15 10° SE visible
15 Jun - 00:04:42 10° SW 00:09:17 17° SSW 00:13:53 10° SSE visible
15 Jun - 19:20:39 10° S 19:23:25 12° SSE 19:26:15 10° SE daylight
15 Jun - 21:10:38 10° SW 21:15:43 20° S 21:20:58 10° SE visible
15 Jun - 23:03:11 10° SW 23:08:13 19° S 23:13:18 10° SSE visible
16 Jun - 00:59:19 10° SSW 01:00:33 10° SSW 01:01:47 10° SSW visible
16 Jun - 20:10:06 10° SSW 20:14:42 18° SSE 20:19:26 10° SE daylight
16 Jun - 22:01:58 10° SW 22:07:08 20° S 22:12:26 10° SE visible
16 Jun - 23:56:03 10° SW 23:59:33 14° SSW 00:03:05 10° S visible
17 Jun - 19:09:58 10° SSW 19:13:43 15° SSE 19:17:35 10° SE daylight
17 Jun - 21:01:00 10° SW 21:06:04 20° S 21:11:18 10° SE daylight
17 Jun - 22:54:09 10° SW 22:58:31 16° SSW 23:02:57 10° SSE visible
